Location: Newark
(35.2161°N, 26.1013°E)
Time: 13:40:12
(UTC+00:00)

BEESAT 2 - Pass Details

Date: 27 January 2020
Orbit: 493 x 534 km, 64.9° (Epoch: 25 February)

Event Time Altitude Azimuth Distance (km) Brightness Sun altitude
Exits shadow 03:45:37 48° 306° (NW) 702 ? -19.1°
Maximum altitude 03:46:33 68° 243° (WSW) 573 ? -18.9°
Drops below altitude 10° 03:50:29 10° 160° (SSE) 1,763 ? -18.1°
Sets 03:52:39 0° 158° (SSE) 2,642 ? -17.7°
